EW6393 Weather Reports


time (UTC)temp
C
wind
direction
speed
KPH
gust
KPH
rain 1hr
cm
rain 24hr
cm
rain mn
cm
humidity
%
barometer
mb
20260502150122 15 263 0.0 1.6 0.00 0.00 0.00 31 1021.9
20260502130619 8 63 0.0 1.6 0.00 0.00 0.00 43 1021.6
20260502130127 7 63 1.6 1.6 0.00 0.00 0.00 44 1021.6
20260502123646 8 63 0.0 1.6 0.00 0.00 0.00 40 1021.5
20260502123133 8 63 0.0 1.6 0.00 0.00 0.00 41 1021.4
20260502122614 8 63 0.0 1.6 0.00 0.00 0.00 43 1021.4
20260502122134 8 89 0.0 3.2 0.00 0.00 0.00 42 1021.3
20260502121622 7 70 1.6 1.6 0.00 0.00 0.00 43 1021.3
20260502121123 8 92 1.6 3.2 0.00 0.00 0.00 43 1021.4
20260502120632 8 78 1.6 3.2 0.00 0.00 0.00 41 1021.3
20260502120112 8 107 1.6 1.6 0.00 0.00 0.00 41 1021.3
20260502115613 8 96 1.6 1.6 0.00 0.00 0.00 39 1021.3
20260502115122 8 73 1.6 1.6 0.00 0.00 0.00 40 1021.3
20260502114623 8 73 0.0 1.6 0.00 0.00 0.00 40 1021.3
20260502114130 8 73 0.0 1.6 0.00 0.00 0.00 40 1021.3
20260502113611 7 73 0.0 1.6 0.00 0.00 0.00 42 1021.3
20260502113113 7 73 0.0 1.6 0.00 0.00 0.00 42 1021.3
20260502112613 7 73 1.6 1.6 0.00 0.00 0.00 43 1021.2
20260502112120 8 88 1.6 1.6 0.00 0.00 0.00 41 1021.3
20260502111621 8 89 1.6 1.6 0.00 0.00 0.00 41 1021.3
20260502111130 8 89 0.0 1.6 0.00 0.00 0.00 40 1021.3
20260502110610 8 89 1.6 1.6 0.00 0.00 0.00 40 1021.3
20260502110111 8 89 0.0 1.6 0.00 0.00 0.00 39 1021.3
20260502105639 8 89 1.6 1.6 0.00 0.00 0.00 38 1021.3
20260502105146 9 89 1.6 1.6 0.00 0.00 0.00 37 1021.3
20260502104627 9 69 1.6 3.2 0.00 0.00 0.00 36 1021.2
20260502104127 10 69 1.6 3.2 0.00 0.00 0.00 36 1021.2
20260502103636 9 79 1.6 3.2 0.00 0.00 0.00 36 1021.2
20260502103117 9 68 1.6 3.2 0.00 0.00 0.00 37 1021.2
20260502102645 9 76 1.6 1.6 0.00 0.00 0.00 37 1021.1
20260502102126 10 322 0.0 1.6 0.00 0.00 0.00 35 1021.1
20260502101627 10 72 0.0 1.6 0.00 0.00 0.00 34 1021.1
20260502101136 10 72 0.0 3.2 0.00 0.00 0.00 34 1021.0
20260502100615 10 80 0.0 3.2 0.00 0.00 0.00 34 1021.0
20260502100122 10 68 0.0 3.2 0.00 0.00 0.00 34 1021.0
20260502091121 10 72 1.6 3.2 0.00 0.00 0.00 35 1021.0
20260502090622 10 77 1.6 3.2 0.00 0.00 0.00 35 1021.0
20260502090130 10 92 1.6 3.2 0.00 0.00 0.00 35 1021.0
20260502071126 10 73 0.0 1.6 0.00 0.00 0.00 44 1021.1
20260502070636 10 73 1.6 1.6 0.00 0.00 0.00 43 1021.2
20260502070116 10 80 0.0 1.6 0.00 0.00 0.00 44 1021.1
20260502065624 10 79 0.0 1.6 0.00 0.00 0.00 43 1021.1
20260502065125 10 117 1.6 1.6 0.00 0.00 0.00 45 1021.1
20260502064654 10 131 0.0 1.6 0.00 0.00 0.00 46 1021.1
20260502064136 10 131 0.0 3.2 0.00 0.00 0.00 46 1021.1
20260502063623 10 70 1.6 3.2 0.00 0.00 0.00 47 1021.0
20260502063125 10 70 0.0 1.6 0.00 0.00 0.00 47 1021.0
20260502062625 10 84 1.6 1.6 0.00 0.00 0.00 46 1021.1
20260502062134 10 62 1.6 1.6 0.00 0.00 0.00 45 1021.0
20260502061615 10 65 0.0 1.6 0.00 0.00 0.00 46 1021.1
20260502061116 10 65 0.0 1.6 0.00 0.00 0.00 45 1021.0
20260502060621 10 65 1.6 1.6 0.00 0.00 0.00 45 1021.0
20260502060143 10 65 0.0 1.6 0.00 0.00 0.00 46 1021.0
20260502055630 10 65 0.0 1.6 0.00 0.00 0.00 47 1021.0
20260502055131 10 65 0.0 1.6 0.00 0.00 0.00 46 1021.1
20260502054612 10 65 0.0 1.6 0.00 0.00 0.00 47 1021.0
20260502054120 10 65 0.0 3.2 0.00 0.00 0.00 46 1020.9
20260502053620 10 65 0.0 3.2 0.00 0.00 0.00 45 1020.9
20260502053149 10 58 1.6 3.2 0.00 0.00 0.00 45 1020.9
20260502052629 10 68 1.6 3.2 0.00 0.00 0.00 45 1020.9
20260502052118 10 80 1.6 3.2 0.00 0.00 0.00 45 1020.9
20260502051618 10 66 1.6 3.2 0.00 0.00 0.00 45 1020.9
20260502051119 10 66 0.0 3.2 0.00 0.00 0.00 45 1020.9
20260502050647 10 66 0.0 1.6 0.00 0.00 0.00 47 1020.8
20260502050134 11 66 0.0 1.6 0.00 0.00 0.00 46 1020.7
20260502045612 11 66 0.0 1.6 0.00 0.00 0.00 44 1020.7
20260502045114 11 66 0.0 1.6 0.00 0.00 0.00 44 1020.8
20260502044615 11 66 0.0 3.2 0.00 0.00 0.00 44 1020.8
20260502044123 11 72 1.6 3.2 0.00 0.00 0.00 44 1020.8
20260502043625 11 73 1.6 3.2 0.00 0.00 0.00 44 1020.8
20260502043132 11 86 1.6 1.6 0.00 0.00 0.00 44 1020.8
20260502042633 11 77 0.0 1.6 0.00 0.00 0.00 44 1020.8
20260502042140 11 57 0.0 1.6 0.00 0.00 0.00 43 1020.8
20260502041620 11 57 1.6 1.6 0.00 0.00 0.00 43 1020.8
20260502040643 11 66 1.6 1.6 0.00 0.00 0.00 43 1020.8
20260502040122 11 66 1.6 1.6 0.00 0.00 0.00 43 1020.8
20260502035631 11 66 0.0 1.6 0.00 0.00 0.00 44 1020.7
20260502035113 12 66 0.0 1.6 0.00 0.00 0.00 43 1020.7
20260502034613 12 66 0.0 1.6 0.00 0.00 0.00 42 1020.6
20260502034121 12 106 0.0 1.6 0.00 0.00 0.00 42 1020.5
20260502033622 12 110 0.0 1.6 0.00 0.00 0.00 42 1020.4
20260502033123 12 120 0.0 1.6 0.00 0.00 0.00 41 1020.3
20260502032631 12 120 0.0 1.6 0.00 0.00 0.00 41 1020.3
20260502032112 12 120 0.0 1.6 0.00 0.00 0.00 39 1020.3
20260502031614 13 120 0.0 1.6 0.00 0.00 0.00 39 1020.3
20260502031122 13 120 0.0 1.6 0.00 0.00 0.00 37 1020.2
20260502030623 13 120 0.0 1.6 0.00 0.00 0.00 34 1020.1
20260502030123 13 120 0.0 3.2 0.00 0.00 0.00 37 1020.0
20260502025632 13 120 0.0 3.2 0.00 0.00 0.00 37 1019.9
20260502025114 13 113 1.6 1.6 0.00 0.00 0.00 35 1019.8
20260502024614 14 298 0.0 1.6 0.00 0.00 0.00 36 1019.8
20260502024121 14 298 0.0 0.0 0.00 0.00 0.00 37 1019.8
20260502023641 15 298 0.0 0.0 0.00 0.00 0.00 36 1019.7
20260502023128 15 298 0.0 1.6 0.00 0.00 0.00 34 1019.5
20260502022629 15 325 0.0 4.8 0.00 0.00 0.00 34 1019.4
20260502022137 16 315 1.6 4.8 0.00 0.00 0.00 33 1019.4
20260502021617 16 313 1.6 6.4 0.00 0.00 0.00 33 1019.4
20260502021146 17 304 1.6 6.4 0.00 0.00 0.00 31 1019.3
20260502020626 17 309 1.6 9.7 0.00 0.00 0.00 31 1019.3
20260502020134 17 285 4.8 9.7 0.00 0.00 0.00 30 1019.2
20260502015614 17 287 0.0 9.7 0.00 0.00 0.00 31 1019.2
20260502015115 17 263 4.8 9.7 0.00 0.00 0.00 29 1019.1
20260502014623 17 39 4.8 9.7 0.00 0.00 0.00 30 1019.2
20260502014124 17 281 3.2 14.5 0.00 0.00 0.00 29 1019.1
20260502013631 17 318 8.0 14.5 0.00 0.00 0.00 27 1019.1
20260502013113 18 281 3.2 16.1 0.00 0.00 0.00 29 1019.1
20260502012614 18 335 6.4 16.1 0.00 0.00 0.00 29 1019.1
20260502012121 18 288 4.8 14.5 0.00 0.00 0.00 29 1019.1
20260502011623 18 311 3.2 12.9 0.00 0.00 0.00 29 1019.1
20260502011150 18 300 6.4 16.1 0.00 0.00 0.00 28 1019.0
20260502010611 18 301 8.0 16.1 0.00 0.08 0.00 28 1019.1
20260502010112 18 3 6.4 14.5 0.00 0.08 0.00 28 1019.1
20260502005620 18 264 4.8 14.5 0.00 0.08 0.00 28 1019.0
20260502005121 18 302 6.4 14.5 0.00 0.08 0.00 28 1019.0
20260502004622 18 304 6.4 14.5 0.00 0.08 0.00 27 1019.0
20260502004130 18 328 6.4 16.1 0.00 0.08 0.00 27 1019.0
20260502003611 18 283 8.0 16.1 0.00 0.08 0.00 28 1019.0
20260502003111 18 323 6.4 17.7 0.00 0.08 0.00 28 1019.0
20260502002617 18 296 6.4 16.1 0.00 0.08 0.00 27 1019.1
20260502002117 18 342 8.0 16.1 0.00 0.08 0.00 28 1019.1
20260502001618 18 354 6.4 14.5 0.00 0.08 0.00 28 1019.1
20260502001126 18 347 6.4 14.5 0.00 0.08 0.00 28 1019.1
20260502000656 18 286 3.2 12.9 0.00 0.08 0.00 28 1019.2
20260502000116 18 3 4.8 14.5 0.00 0.08 0.00 28 1019.2
20260501235616 18 297 4.8 19.3 0.00 0.08 0.00 28 1019.2
20260501235124 18 314 4.8 19.3 0.00 0.08 0.00 29 1019.2
20260501234624 18 94 4.8 19.3 0.00 0.08 0.00 28 1019.2
20260501234152 18 326 6.4 17.7 0.00 0.08 0.00 28 1019.3
20260501233631 18 356 4.8 12.9 0.00 0.08 0.00 27 1019.3
20260501233113 18 23 4.8 19.3 0.00 0.08 0.00 27 1019.3
20260501232116 18 274 6.4 16.1 0.00 0.08 0.00 26 1019.2
20260501231645 18 274 6.4 16.1 0.00 0.08 0.00 27 1019.3
20260501231124 18 281 8.0 16.1 0.00 0.08 0.00 26 1019.3
20260501230625 19 311 4.8 14.5 0.00 0.08 0.00 26 1019.3
20260501230111 19 346 4.8 14.5 0.00 0.08 0.00 28 1019.4
20260501225631 18 257 6.4 14.5 0.00 0.08 0.00 25 1019.4
20260501225111 18 283 4.8 14.5 0.00 0.08 0.00 27 1019.3
20260501224620 18 283 4.8 14.5 0.00 0.08 0.00 27 1019.4
20260501224121 18 253 8.0 19.3 0.00 0.08 0.00 26 1019.5
20260501223628 18 266 8.0 19.3 0.00 0.08 0.00 27 1019.5
20260501223129 18 15 4.8 20.9 0.00 0.08 0.00 27 1019.5
20260501222629 18 269 11.3 20.9 0.00 0.08 0.00 26 1019.5
20260501222137 18 266 9.7 24.1 0.00 0.08 0.00 26 1019.5
20260501221618 18 276 4.8 24.1 0.00 0.08 0.00 26 1019.6
20260501221119 18 335 8.0 22.5 0.00 0.08 0.00 26 1019.6
20260501220626 18 297 6.4 19.3 0.00 0.08 0.00 26 1019.8
20260501220134 18 300 4.8 19.3 0.00 0.08 0.00 26 1019.8
20260501215614 18 304 8.0 17.7 0.00 0.08 0.00 25 1019.8
20260501215112 18 318 9.7 17.7 0.00 0.08 0.00 25 1019.9
20260501214619 18 221 6.4 17.7 0.00 0.08 0.00 26 1019.9
20260501214120 18 307 8.0 17.7 0.00 0.08 0.00 24 1020.1
20260501213628 18 264 6.4 20.9 0.00 0.08 0.00 24 1020.1
20260501213129 17 305 14.5 20.9 0.00 0.08 0.00 25 1020.1
20260501212629 17 352 9.7 20.9 0.00 0.08 0.00 26 1020.1
20260501212145 18 300 9.7 20.9 0.00 0.08 0.00 25 1020.1
20260501211625 18 293 4.8 17.7 0.00 0.08 0.00 25 1020.1
20260501211130 17 283 8.0 20.9 0.00 0.08 0.00 26 1020.3
20260501210631 17 264 8.0 24.1 0.00 0.08 0.00 26 1020.2
20260501210138 17 276 11.3 24.1 0.00 0.08 0.00 25 1020.2
20260501205638 17 279 9.7 20.9 0.00 0.08 0.00 24 1020.2
20260501205117 17 340 9.7 20.9 0.00 0.08 0.00 25 1020.2
20260501204624 18 290 9.7 19.3 0.00 0.08 0.00 24 1020.3
20260501204125 18 307 6.4 16.1 0.00 0.08 0.00 25 1020.2
20260501203650 18 345 4.8 14.5 0.00 0.08 0.00 25 1020.2
20260501203113 17 318 6.4 19.3 0.00 0.08 0.00 23 1020.2
20260501202614 17 271 6.4 19.3 0.00 0.08 0.00 22 1020.3
20260501202122 18 308 6.4 11.3 0.00 0.08 0.00 22 1020.3
20260501201623 17 30 1.6 11.3 0.00 0.08 0.00 23 1020.3
20260501201124 18 240 3.2 11.3 0.00 0.08 0.00 24 1020.3
20260501200633 17 237 4.8 16.1 0.00 0.08 0.00 24 1020.3
20260501200113 18 239 4.8 16.1 0.00 0.08 0.00 24 1020.3
20260501195614 17 328 1.6 14.5 0.00 0.08 0.00 25 1020.4
20260501195121 17 237 6.4 14.5 0.00 0.08 0.00 24 1020.4
20260501194622 17 292 6.4 14.5 0.00 0.08 0.00 24 1020.4
20260501194123 17 236 4.8 16.1 0.00 0.08 0.00 25 1020.4
20260501193632 17 274 6.4 24.1 0.00 0.08 0.00 22 1020.3
20260501193113 17 305 11.3 24.1 0.00 0.08 0.00 23 1020.3
20260501192613 17 238 3.2 14.5 0.00 0.08 0.00 22 1020.3
20260501192142 17 302 4.8 14.5 0.00 0.08 0.00 25 1020.4
20260501191621 17 276 8.0 11.3 0.00 0.08 0.00 24 1020.4
20260501191130 17 292 4.8 22.5 0.00 0.08 0.00 22 1020.5
20260501190611 17 314 11.3 22.5 0.00 0.08 0.00 21 1020.5
20260501190111 17 323 4.8 12.9 0.00 0.08 0.00 23 1020.6
20260501185620 17 302 3.2 16.1 0.00 0.08 0.00 23 1020.6
20260501185120 17 276 6.4 16.1 0.00 0.08 0.00 23 1020.6
20260501184621 17 285 6.4 14.5 0.00 0.08 0.00 22 1020.7
20260501184129 17 316 6.4 14.5 0.00 0.08 0.00 22 1020.7
20260501183630 16 282 4.8 14.5 0.00 0.08 0.00 24 1020.8
20260501183111 17 321 6.4 12.9 0.00 0.08 0.00 24 1020.8
20260501182639 17 324 4.8 9.7 0.00 0.08 0.00 25 1020.9
20260501182119 16 296 3.2 12.9 0.00 0.08 0.00 25 1020.9
20260501181627 16 6 4.8 12.9 0.00 0.08 0.00 24 1021.0
20260501181149 16 252 4.8 14.5 0.00 0.08 0.00 24 1020.9
20260501180617 16 294 8.0 14.5 0.00 0.08 0.00 24 1021.1
20260501180135 16 1 4.8 12.9 0.00 0.08 0.00 24 1021.1
20260501175621 16 11 4.8 14.5 0.00 0.08 0.00 26 1021.2
20260501175149 16 338 6.4 14.5 0.00 0.08 0.00 25 1021.2
20260501174629 16 307 3.2 9.7 0.00 0.08 0.00 25 1021.3
20260501174131 16 349 3.2 11.3 0.00 0.08 0.00 27 1021.3
20260501173639 15 324 4.8 12.9 0.00 0.08 0.00 26 1021.4
20260501173118 15 11 3.2 12.9 0.00 0.08 0.00 26 1021.4
20260501172619 15 302 6.4 12.9 0.00 0.08 0.00 27 1021.4
20260501172128 15 311 1.6 11.3 0.00 0.08 0.00 27 1021.6
20260501171628 15 34 3.2 17.7 0.00 0.08 0.00 28 1021.7
20260501171136 15 69 6.4 17.7 0.00 0.08 0.00 28 1021.7
20260501170618 15 63 3.2 14.5 0.00 0.08 0.00 27 1021.7
20260501170144 15 24 6.4 14.5 0.00 0.08 0.00 28 1021.6
20260501165624 14 218 1.6 20.9 0.00 0.08 0.00 28 1021.6
20260501165125 14 330 9.7 20.9 0.00 0.08 0.00 27 1021.7
20260501164633 14 45 4.8 17.7 0.00 0.08 0.00 28 1021.6
20260501164134 14 7 6.4 17.7 0.00 0.08 0.00 28 1021.6
20260501163615 14 62 4.8 14.5 0.00 0.08 0.00 30 1021.6
20260501163123 14 58 4.8 14.5 0.00 0.08 0.00 28 1021.6
20260501162624 14 41 4.8 14.5 0.00 0.08 0.00 31 1021.6
20260501162132 13 94 4.8 11.3 0.00 0.08 0.00 30 1021.6
20260501161612 13 68 4.8 12.9 0.00 0.08 0.00 31 1021.6
20260501161114 13 53 9.7 12.9 0.00 0.08 0.00 31 1021.6
20260501160614 13 34 4.8 12.9 0.00 0.08 0.00 32 1021.5
20260501160121 13 96 8.0 12.9 0.00 0.08 0.00 31 1021.5
20260501155649 13 75 4.8 14.5 0.00 0.08 0.00 33 1021.4
20260501155129 13 132 6.4 14.5 0.00 0.08 0.00 31 1021.5
20260501154630 13 104 4.8 12.9 0.00 0.08 0.00 32 1021.4
20260501154119 13 98 3.2 12.9 0.00 0.08 0.00 33 1021.5
20260501153619 13 94 1.6 9.7 0.00 0.08 0.00 33 1021.4
20260501153120 13 57 3.2 9.7 0.00 0.08 0.00 32 1021.4
20260501152627 13 262 1.6 14.5 0.00 0.08 0.00 34 1021.4
20260501152129 12 346 1.6 17.7 0.00 0.08 0.00 34 1021.4
20260501151630 12 115 6.4 17.7 0.00 0.08 0.00 34 1021.3
20260501151112 12 89 4.8 17.7 0.00 0.08 0.00 34 1021.4
20260501150620 12 1 6.4 17.7 0.00 0.08 0.00 36 1021.4